Wind_Speed
12 12 12 11 10 10 10 10 11 11 11 11 11 11 11 12 12 13 13 14 13 14 14 15 16 17 17 17 18 19 19 19 19 20 20 21 21 21 22 22 21 21 22
12 11 10 9 9 9 10 10 10 10 11 11 10 11 12 12 12 12 12 12 13 13 14 14 15 15 16 17 18 17 18 18 19 19 19 19 20 20 20 20 20 21 22
10 10 10 9 9 9 9 9 10 10 10 11 11 11 11 11 11 11 12 12 12 13 14 13 13 14 15 16 16 17 18 18 18 17 17 18 19 19 20 21 21 21 22
10 10 9 9 9 9 9 9 10 10 10 11 10 10 10 10 9 10 11 11 12 13 13 13 13 14 14 14 15 16 16 17 17 17 17 18 19 20 20 21 21 22 22
10 10 9 9 9 9 10 10 10 10 10 9 9 10 10 10 10 10 11 11 12 12 13 13 13 13 14 15 15 16 16 16 16 17 18 18 19 20 21 21 20 21 22
9 9 9 8 8 9 9 10 10 10 10 9 9 9 9 10 11 11 11 12 12 12 13 13 13 14 15 15 15 15 16 16 16 17 18 18 19 19 20 20 20 21 22
10 10 10 9 9 9 9 9 10 10 10 10 10 10 10 11 12 12 11 11 12 13 13 13 15 15 15 14 15 15 16 16 17 18 18 19 19 19 19 20 20 21 22
11 10 10 11 10 10 9 9 10 9 9 9 10 10 11 11 11 11 12 12 13 13 14 14 14 15 14 14 14 15 16 17 17 17 18 19 19 19 19 20 20 21 21
11 11 11 11 11 11 11 11 11 11 11 10 10 11 11 12 12 12 12 12 13 14 14 14 15 15 14 14 15 15 16 16 17 17 18 19 18 19 20 21 21 21 22
12 12 12 11 11 12 12 12 12 12 12 11 11 11 11 11 11 11 12 13 14 14 15 15 15 15 15 15 16 16 17 17 18 18 18 19 19 20 21 21 22 22 23
13 13 12 12 12 13 13 13 13 13 13 12 12 12 12 12 12 12 13 14 14 15 15 15 15 15 15 15 16 17 18 18 19 19 19 19 20 21 22 22 22 24 24
14 13 13 12 13 13 14 14 14 14 14 14 13 13 13 13 13 13 14 15 15 15 16 16 16 16 16 16 17 17 18 18 18 18 19 19 20 21 22 23 23 24 25
14 14 13 13 13 14 14 15 15 15 14 14 15 15 14 15 15 15 15 16 16 17 17 17 17 17 16 17 17 17 18 18 18 18 19 19 20 21 22 22 23 23 24
15 15 14 14 14 15 15 16 16 16 16 16 16 16 15 16 16 16 16 17 17 17 17 17 17 17 17 17 17 17 18 18 19 19 20 20 21 21 22 22 22 23 24
16 15 15 15 15 15 16 16 17 17 18 18 17 17 17 16 16 16 16 16 17 17 18 18 18 17 17 17 18 19 19 19 20 20 20 21 22 22 21 21 22 22 23
16 16 16 16 17 16 16 17 18 19 19 19 18 16 16 16 16 16 17 17 18 18 18 19 19 18 18 19 19 19 19 19 20 21 22 22 22 22 21 21 21 22 22
17 17 17 17 17 17 17 18 19 19 19 19 18 17 16 17 17 17 18 19 19 19 19 19 19 19 19 19 19 19 20 20 21 22 23 23 23 22 22 21 20 20 20
17 17 17 18 18 17 18 18 19 19 18 18 19 18 18 18 18 18 19 19 20 20 20 20 19 19 19 20 19 19 20 20 21 22 22 22 22 21 20 20 19 19 19
17 17 18 18 18 18 18 18 17 17 17 17 18 18 19 19 19 20 20 20 21 21 20 20 20 20 20 20 20 20 20 20 21 21 21 21 21 21 20 19 20 20 20
18 17 17 18 18 17 17 17 16 16 17 17 17 18 18 19 21 21 22 22 22 21 21 21 21 21 21 21 21 21 21 21 21 21 21 21 21 21 20 20 20 19 19
18 18 18 18 19 18 18 18 18 18 18 18 18 18 19 20 20 21 22 22 22 22 22 22 21 22 22 21 22 22 22 21 21 21 22 22 21 20 19 20 20 20 19
19 18 18 18 18 18 18 18 18 19 18 18 19 19 19 19 20 21 22 22 22 22 22 21 21 21 22 22 22 22 22 22 22 22 22 22 22 21 20 20 20 19 19
19 19 19 18 17 18 18 18 19 19 18 18 19 19 19 19 20 20 20 21 21 20 20 20 20 20 21 21 22 22 22 23 23 23 22 21 22 22 21 21 20 20 20
20 20 19 18 18 17 17 18 18 19 18 19 19 19 19 20 20 19 20 20 20 19 19 19 19 19 20 21 22 22 22 22 22 22 22 22 22 22 21 20 20 20 19
19 19 19 18 18 18 18 18 19 18 18 19 18 18 19 20 19 19 19 19 19 19 19 19 19 20 21 21 22 22 23 22 22 22 22 22 22 22 21 20 20 20 20
19 19 19 19 18 18 18 18 18 19 18 19 19 19 19 19 19 19 18 19 19 19 20 20 20 21 21 22 22 23 23 23 23 22 22 22 22 21 20 20 19 19 19
Wind_Direction
294 290 284 280 279 280 282 283 284 284 286 290 290 289 290 289 286 285 286 285 286 287 283 279 276 277 278 279 280 279 276 277 275 275 274 274 270 266 267 266 267 266 265
293 288 283 285 283 281 282 283 286 285 289 291 289 290 289 287 286 289 290 288 285 284 284 283 281 279 281 283 281 280 278 277 277 277 277 276 274 270 269 269 269 268 266
292 290 287 284 281 281 283 285 285 287 291 293 294 296 296 290 287 289 292 293 291 288 286 285 285 284 285 283 281 279 278 280 277 275 279 281 278 274 271 271 269 268 266
289 292 291 288 285 283 284 288 287 287 293 295 299 301 301 296 292 294 297 295 295 293 292 292 289 293 294 290 287 283 280 280 277 279 277 279 279 276 274 273 270 268 267
288 293 298 295 293 289 287 289 289 289 292 299 301 301 299 298 297 297 298 298 298 297 294 294 294 294 293 292 290 287 283 281 278 281 279 280 279 277 276 274 272 270 270
292 295 298 299 297 298 294 289 289 291 288 290 297 299 300 301 301 302 300 301 301 300 298 297 298 297 295 292 291 288 287 285 282 283 281 280 279 278 277 275 274 274 272
295 296 297 295 295 300 301 296 296 295 292 291 294 295 298 300 299 299 299 301 303 304 303 302 301 299 298 293 290 288 290 291 286 285 283 283 281 278 277 276 274 273 272
292 292 294 293 293 295 297 295 296 300 297 291 289 293 295 296 298 298 300 299 303 304 304 304 304 303 302 296 293 291 290 290 289 287 286 285 284 279 278 277 275 272 271
289 289 288 289 292 293 295 294 294 296 298 296 293 293 297 298 299 299 299 301 302 307 309 308 306 305 301 297 297 296 294 292 292 290 289 288 284 281 280 279 279 276 275
283 284 285 284 287 290 293 295 296 296 297 293 293 297 300 301 300 302 305 305 305 307 310 309 306 304 302 300 298 297 298 297 294 293 290 288 287 283 282 281 280 279 278
282 280 279 281 282 285 287 289 291 293 294 292 293 295 297 299 297 298 302 302 305 309 313 313 308 303 302 300 299 299 299 300 298 296 293 291 289 286 284 283 282 279 277
280 278 279 281 282 285 285 287 288 287 289 289 289 294 296 295 297 297 299 300 299 305 309 311 309 304 300 299 300 300 301 303 303 300 299 298 296 293 290 287 284 280 278
277 276 277 280 284 288 287 286 287 285 284 285 287 292 295 296 297 296 297 299 302 303 305 307 307 305 301 300 301 302 303 307 307 304 301 302 300 297 294 290 287 283 280
275 274 275 279 283 287 288 287 287 286 285 285 287 289 292 294 296 297 297 299 301 303 304 306 307 306 304 302 303 303 304 305 306 305 303 302 303 301 296 292 289 285 283
275 275 275 277 281 283 285 286 286 287 289 288 286 287 290 294 298 300 301 302 301 302 303 303 304 305 306 306 306 306 305 304 304 306 305 302 304 304 300 295 291 288 286
275 275 274 275 278 280 284 286 287 288 290 291 288 288 290 292 295 298 302 302 302 302 304 304 308 307 305 303 304 306 306 306 306 307 307 305 303 304 302 297 293 289 287
274 273 274 275 276 279 283 286 288 288 289 291 292 291 291 292 294 296 300 303 303 303 305 305 307 308 306 305 305 305 306 305 305 306 307 307 306 304 303 301 298 296 293
276 274 274 276 277 279 283 285 286 286 288 289 290 289 288 291 290 292 296 299 300 300 301 304 304 305 305 306 307 306 306 306 306 307 308 308 309 308 305 303 303 302 300
279 279 277 277 278 280 283 285 285 287 287 289 287 287 286 287 288 291 293 295 297 299 298 301 303 304 304 306 306 305 305 306 307 308 309 308 308 307 306 304 304 303 302
281 280 279 278 279 279 281 283 284 285 286 286 286 287 288 287 288 288 290 293 295 297 297 298 300 301 304 305 306 305 305 305 306 307 308 308 306 305 303 303 304 304 302
281 281 280 281 279 278 279 281 283 283 284 284 286 287 288 289 288 289 289 291 294 296 297 297 298 299 300 301 304 305 305 306 306 306 307 307 306 304 302 302 303 303 301
281 281 282 282 280 278 278 280 281 283 282 284 284 285 287 288 289 290 290 290 291 295 297 297 297 298 298 299 302 304 305 306 306 307 308 308 307 305 302 300 301 301 301
278 281 282 282 282 280 279 280 282 284 282 282 281 282 284 286 288 290 289 289 291 294 296 297 298 300 301 302 302 304 306 307 307 308 308 306 306 304 302 301 299 298 299
275 278 279 279 280 282 281 280 281 282 281 283 282 283 283 284 287 288 289 289 291 293 295 298 301 304 305 305 306 306 307 307 308 308 308 307 304 303 301 300 300 300 301
272 273 275 276 278 281 283 281 279 279 281 285 287 288 286 284 287 288 288 288 290 293 295 299 301 302 303 304 305 304 305 306 308 308 308 308 306 303 300 300 300 300 300
269 270 270 272 276 280 282 282 282 280 281 284 287 289 288 286 286 289 290 291 292 293 295 297 299 299 300 301 303 303 304 304 305 306 308 308 306 304 301 299 301 301 300
Height
5841 5839 5838 5837 5836 5835 5834 5833 5831 5830 5828 5827 5826 5825 5823 5822 5820 5819 5818 5817 5816 5814 5813 5812 5811 5810 5809 5808 5808 5807 5806 5805 5805 5804 5804 5804 5803 5803 5803 5803 5803 5803 5803
5838 5836 5835 5834 5833 5832 5831 5830 5829 5828 5826 5825 5823 5822 5820 5819 5818 5816 5815 5814 5812 5811 5809 5808 5807 5806 5805 5804 5803 5802 5802 5801 5800 5799 5799 5799 5799 5798 5798 5798 5797 5797 5798
5836 5834 5833 5832 5831 5830 5829 5828 5826 5825 5824 5822 5821 5819 5818 5816 5815 5813 5812 5810 5809 5808 5806 5805 5804 5803 5801 5800 5799 5798 5797 5796 5795 5795 5795 5794 5793 5793 5793 5792 5792 5792 5792
5834 5832 5831 5830 5829 5828 5827 5826 5824 5823 5821 5820 5818 5817 5815 5814 5812 5811 5809 5808 5806 5805 5804 5802 5801 5799 5798 5796 5795 5794 5793 5791 5791 5790 5790 5789 5788 5788 5787 5787 5786 5786 5786
5832 5830 5829 5828 5827 5826 5824 5823 5822 5820 5819 5818 5816 5815 5813 5812 5810 5809 5807 5806 5804 5802 5801 5799 5798 5796 5794 5792 5791 5790 5788 5787 5786 5785 5785 5784 5783 5782 5782 5781 5781 5780 5780
5830 5828 5827 5826 5825 5824 5822 5821 5819 5818 5817 5816 5814 5813 5811 5809 5808 5806 5805 5803 5801 5800 5798 5796 5794 5793 5791 5789 5787 5785 5784 5783 5782 5781 5780 5780 5779 5777 5777 5776 5775 5775 5775
5827 5826 5825 5824 5823 5822 5820 5819 5817 5815 5814 5813 5812 5810 5809 5807 5806 5804 5802 5801 5799 5797 5795 5793 5791 5789 5787 5785 5784 5782 5780 5779 5778 5777 5776 5775 5773 5772 5771 5771 5770 5770 5770
5825 5824 5823 5821 5820 5819 5818 5816 5815 5813 5812 5811 5809 5808 5806 5805 5803 5801 5799 5798 5796 5794 5792 5790 5787 5785 5783 5782 5780 5779 5777 5775 5774 5773 5772 5770 5768 5767 5766 5765 5765 5764 5764
5822 5821 5820 5819 5818 5816 5815 5814 5812 5811 5810 5808 5807 5805 5804 5802 5800 5798 5797 5795 5793 5791 5788 5786 5784 5781 5779 5778 5776 5775 5773 5772 5770 5768 5767 5765 5763 5762 5761 5760 5759 5758 5758
5818 5818 5816 5815 5814 5813 5812 5811 5810 5808 5807 5805 5804 5803 5801 5799 5797 5796 5794 5792 5790 5787 5785 5782 5780 5777 5776 5774 5773 5771 5769 5767 5765 5764 5762 5760 5758 5756 5755 5754 5753 5752 5751
5815 5814 5813 5812 5811 5810 5809 5808 5807 5805 5804 5802 5801 5799 5798 5796 5794 5792 5791 5789 5786 5784 5782 5779 5776 5774 5772 5770 5768 5767 5765 5763 5760 5758 5756 5754 5752 5751 5749 5748 5746 5745 5745
5811 5810 5810 5809 5808 5807 5806 5804 5803 5802 5800 5799 5798 5796 5795 5793 5791 5789 5787 5785 5783 5781 5778 5775 5773 5770 5768 5766 5764 5762 5760 5758 5755 5753 5751 5749 5747 5745 5743 5741 5739 5738 5737
5807 5807 5806 5805 5804 5803 5802 5801 5799 5798 5797 5795 5794 5792 5791 5789 5787 5785 5784 5781 5779 5777 5774 5772 5769 5767 5764 5762 5760 5758 5755 5753 5751 5748 5746 5743 5741 5739 5736 5734 5732 5731 5730
5803 5803 5802 5801 5800 5799 5798 5796 5795 5794 5792 5791 5790 5788 5787 5785 5783 5781 5779 5777 5775 5773 5770 5768 5765 5763 5760 5758 5755 5753 5751 5748 5746 5743 5741 5738 5736 5733 5730 5728 5726 5724 5723
5799 5798 5798 5797 5796 5795 5793 5792 5791 5789 5788 5786 5785 5784 5782 5781 5779 5777 5775 5773 5771 5769 5766 5764 5761 5758 5756 5754 5751 5749 5746 5743 5741 5739 5736 5733 5730 5727 5724 5722 5719 5718 5716
5794 5793 5793 5792 5791 5790 5789 5788 5786 5785 5783 5781 5780 5779 5777 5776 5775 5773 5771 5769 5767 5765 5762 5760 5757 5754 5752 5750 5747 5744 5741 5739 5736 5734 5731 5728 5725 5722 5719 5716 5714 5712 5710
5789 5788 5787 5787 5786 5785 5784 5783 5781 5780 5778 5777 5775 5774 5773 5772 5771 5769 5767 5765 5763 5760 5758 5756 5753 5750 5748 5745 5743 5740 5737 5734 5731 5728 5725 5722 5719 5717 5714 5711 5709 5706 5704
5784 5783 5782 5782 5781 5780 5779 5778 5776 5775 5773 5772 5771 5770 5769 5767 5766 5764 5763 5761 5758 5756 5753 5751 5749 5746 5743 5740 5738 5735 5732 5729 5726 5723 5720 5717 5714 5711 5709 5706 5704 5701 5699
5779 5778 5777 5776 5776 5775 5774 5773 5771 5770 5769 5767 5766 5765 5764 5763 5761 5759 5758 5756 5753 5751 5749 5746 5744 5741 5738 5735 5733 5730 5727 5724 5721 5718 5715 5712 5709 5706 5704 5701 5699 5696 5694
5774 5773 5772 5771 5770 5770 5769 5767 5766 5765 5764 5763 5762 5760 5759 5757 5755 5754 5752 5750 5748 5746 5743 5741 5739 5736 5733 5730 5727 5724 5721 5719 5716 5713 5710 5707 5704 5701 5699 5696 5694 5692 5689
5768 5767 5767 5766 5765 5764 5763 5762 5761 5760 5759 5758 5756 5755 5754 5752 5750 5748 5746 5744 5742 5740 5738 5736 5733 5730 5728 5725 5722 5719 5716 5713 5710 5707 5705 5702 5699 5696 5693 5691 5689 5686 5684
5763 5762 5761 5760 5759 5758 5758 5757 5756 5755 5753 5752 5751 5750 5748 5746 5744 5743 5741 5739 5737 5735 5732 5730 5727 5725 5722 5719 5717 5714 5711 5708 5705 5702 5699 5696 5693 5691 5688 5686 5683 5681 5678
5757 5756 5756 5755 5754 5753 5752 5752 5751 5749 5748 5747 5745 5744 5743 5741 5739 5737 5735 5733 5731 5729 5727 5724 5721 5719 5716 5713 5711 5708 5705 5702 5699 5696 5693 5690 5688 5685 5683 5680 5678 5675 5673
5751 5751 5750 5749 5749 5748 5747 5746 5745 5744 5743 5741 5739 5738 5737 5735 5734 5732 5730 5728 5726 5724 5721 5719 5716 5713 5711 5708 5705 5702 5699 5696 5693 5690 5687 5684 5682 5679 5677 5674 5672 5670 5668
5745 5745 5744 5744 5743 5742 5742 5741 5739 5738 5737 5736 5734 5732 5731 5730 5728 5726 5725 5723 5721 5719 5716 5714 5711 5708 5706 5703 5700 5697 5694 5691 5688 5684 5681 5678 5676 5673 5671 5668 5666 5664 5662
5739 5739 5738 5738 5737 5737 5736 5735 5734 5733 5731 5730 5728 5726 5725 5724 5722 5721 5719 5717 5715 5713 5710 5708 5706 5703 5700 5697 5694 5691 5688 5685 5682 5679 5675 5672 5670 5667 5665 5663 5661 5659 5657